When you browse on this site, cookies collect data to enhance your experience and personalize the content and advertising you see.
Visit our Privacy Policy to learn more. By continuing to use the site, you agree to this use of cookies and data.
  • In Lithuania
  • List of Countries
  • For 7 days
  • Water Temperature
  • Weather Map
  • Weather Widgets
  • user-avatar
    Login

    Hourly Weather Beleduejne

    Today, 5 April, Sunday

    Time Temperature Precipitation Wind Pressure Humidity
    00:00 +32°C° 0 mm 7 mps 742 mmHg 60%
    01:00 +32°C° 0 mm 6 mps 741 mmHg 61%
    02:00 +30°C° 0 mm 5 mps 741 mmHg 62%
    03:00 +30°C° 0 mm 4 mps 741 mmHg 62%
    04:00 +30°C° 0 mm 4 mps 741 mmHg 65%
    05:00 +29°C° 0 mm 4 mps 742 mmHg 67%
    06:00 +29°C° 0 mm 3 mps 743 mmHg 69%
    07:00 +30°C° 0.1 mm 4 mps 743 mmHg 63%
    08:00 +32°C° 0.1 mm 4 mps 743 mmHg 58%
    09:00 +34°C° 0 mm 4 mps 744 mmHg 47%
    10:00 +35°C° 0 mm 4 mps 743 mmHg 43%
    11:00 +36°C° 0 mm 4 mps 743 mmHg 39%
    12:00 +37°C° 0 mm 5 mps 742 mmHg 35%
    13:00 +38°C° 0 mm 4 mps 742 mmHg 32%
    14:00 +38°C° 0 mm 4 mps 741 mmHg 29%
    15:00 +39°C° 0 mm 3 mps 740 mmHg 25%
    16:00 +39°C° 0 mm 3 mps 740 mmHg 25%
    17:00 +39°C° 0 mm 3 mps 740 mmHg 25%
    18:00 +40°C° 0 mm 4 mps 741 mmHg 25%
    19:00 +37°C° 0 mm 5 mps 741 mmHg 31%
    20:00 +36°C° 0 mm 6 mps 742 mmHg 37%
    21:00 +35°C° 0 mm 8 mps 742 mmHg 43%
    22:00 +34°C° 0 mm 7 mps 742 mmHg 49%
    23:00 +32°C° 0 mm 7 mps 742 mmHg 54%

    Tomorrow, 6 April, Monday

    Time Temperature Precipitation Wind Pressure Humidity
    00:00 +30°C° 0 mm 6 mps 742 mmHg 60%
    01:00 +30°C° 0 mm 6 mps 742 mmHg 60%
    02:00 +30°C° 0 mm 5 mps 741 mmHg 61%
    03:00 +29°C° 0 mm 4 mps 741 mmHg 61%
    04:00 +29°C° 0 mm 4 mps 741 mmHg 63%
    05:00 +29°C° 0 mm 3 mps 742 mmHg 65%
    06:00 +28°C° 0 mm 3 mps 742 mmHg 67%
    07:00 +29°C° 0 mm 4 mps 743 mmHg 61%
    08:00 +30°C° 0 mm 4 mps 743 mmHg 56%
    09:00 +33°C° 0 mm 5 mps 744 mmHg 50%
    10:00 +34°C° 0 mm 5 mps 743 mmHg 44%
    11:00 +36°C° 0 mm 5 mps 743 mmHg 37%
    12:00 +37°C° 0 mm 5 mps 742 mmHg 30%
    13:00 +39°C° 0 mm 5 mps 741 mmHg 28%
    14:00 +40°C° 0 mm 4 mps 741 mmHg 26%
    15:00 +41°C° 0 mm 4 mps 740 mmHg 24%
    16:00 +40°C° 0 mm 4 mps 740 mmHg 24%
    17:00 +40°C° 0 mm 4 mps 740 mmHg 24%
    18:00 +39°C° 0 mm 3 mps 740 mmHg 24%
    19:00 +38°C° 0 mm 4 mps 741 mmHg 27%
    20:00 +37°C° 0 mm 4 mps 741 mmHg 29%
    21:00 +36°C° 0 mm 5 mps 742 mmHg 32%
    22:00 +35°C° 0 mm 6 mps 742 mmHg 42%
    23:00 +33°C° 0 mm 6 mps 742 mmHg 51%

    Day after tomorrow, 7 April, Tuesday

    Time Temperature Precipitation Wind Pressure Humidity
    00:00 +32°C° 0 mm 7 mps 742 mmHg 61%
    01:00 +30°C° 0 mm 6 mps 742 mmHg 63%
    02:00 +30°C° 0 mm 6 mps 741 mmHg 64%
    03:00 +30°C° 0 mm 5 mps 741 mmHg 66%
    04:00 +29°C° 0 mm 4 mps 741 mmHg 66%
    05:00 +29°C° 0 mm 4 mps 742 mmHg 66%
    06:00 +29°C° 0 mm 3 mps 742 mmHg 66%
    07:00 +30°C° 0 mm 4 mps 742 mmHg 59%
    08:00 +32°C° 0 mm 5 mps 743 mmHg 53%
    09:00 +33°C° 0 mm 5 mps 744 mmHg 47%
    10:00 +35°C° 0 mm 5 mps 743 mmHg 41%
    11:00 +36°C° 0 mm 5 mps 742 mmHg 35%
    12:00 +39°C° 0 mm 5 mps 742 mmHg 29%
    13:00 +40°C° 0 mm 5 mps 741 mmHg 26%
    14:00 +40°C° 0 mm 5 mps 740 mmHg 23%
    15:00 +41°C° 0 mm 4 mps 740 mmHg 19%
    16:00 +41°C° 0 mm 4 mps 739 mmHg 20%
    17:00 +41°C° 0 mm 4 mps 739 mmHg 20%
    18:00 +40°C° 0 mm 4 mps 739 mmHg 20%
    19:00 +39°C° 0 mm 5 mps 740 mmHg 25%
    20:00 +38°C° 0 mm 6 mps 740 mmHg 29%
    21:00 +35°C° 0 mm 6 mps 741 mmHg 34%
    22:00 +34°C° 0 mm 6 mps 741 mmHg 42%
    23:00 +33°C° 0 mm 6 mps 741 mmHg 51%

    8 April, Wednesday

    Time Temperature Precipitation Wind Pressure Humidity
    00:00 +30°C° 0 mm 6 mps 741 mmHg 59%
    01:00 +30°C° 0 mm 6 mps 741 mmHg 61%
    02:00 +29°C° 0 mm 5 mps 741 mmHg 62%
    03:00 +29°C° 0 mm 5 mps 740 mmHg 64%
    04:00 +29°C° 0 mm 5 mps 741 mmHg 66%
    05:00 +28°C° 0 mm 4 mps 741 mmHg 68%
    06:00 +28°C° 0 mm 4 mps 742 mmHg 71%
    07:00 +29°C° 0 mm 4 mps 742 mmHg 64%
    08:00 +30°C° 0 mm 5 mps 743 mmHg 57%
    09:00 +33°C° 0 mm 5 mps 743 mmHg 50%
    10:00 +34°C° 0 mm 5 mps 743 mmHg 43%
    11:00 +36°C° 0 mm 4 mps 742 mmHg 37%
    12:00 +37°C° 0 mm 4 mps 741 mmHg 30%
    13:00 +38°C° 0 mm 4 mps 740 mmHg 27%
    14:00 +40°C° 0 mm 4 mps 740 mmHg 23%
    15:00 +41°C° 0 mm 4 mps 739 mmHg 20%
    16:00 +41°C° 0 mm 4 mps 739 mmHg 20%
    17:00 +41°C° 0 mm 4 mps 739 mmHg 19%
    18:00 +40°C° 0 mm 4 mps 739 mmHg 19%
    19:00 +38°C° 0 mm 4 mps 740 mmHg 22%
    20:00 +37°C° 0 mm 4 mps 740 mmHg 25%
    21:00 +36°C° 0 mm 5 mps 741 mmHg 29%
    22:00 +35°C° 0 mm 5 mps 741 mmHg 40%
    23:00 +33°C° 0 mm 6 mps 741 mmHg 52%

    9 April, Thursday

    Time Temperature Precipitation Wind Pressure Humidity
    00:00 +30°C° 0 mm 7 mps 741 mmHg 64%
    01:00 +30°C° 0 mm 7 mps 740 mmHg 66%
    02:00 +29°C° 0 mm 6 mps 740 mmHg 68%
    03:00 +29°C° 0 mm 6 mps 740 mmHg 70%
    04:00 +29°C° 0 mm 6 mps 741 mmHg 71%
    05:00 +29°C° 0 mm 5 mps 741 mmHg 71%
    06:00 +29°C° 0 mm 5 mps 742 mmHg 72%
    07:00 +30°C° 0 mm 5 mps 742 mmHg 67%
    08:00 +30°C° 0 mm 5 mps 743 mmHg 62%
    09:00 +32°C° 0 mm 4 mps 743 mmHg 58%
    10:00 +34°C° 0 mm 4 mps 742 mmHg 51%
    11:00 +35°C° 0 mm 4 mps 741 mmHg 44%
    12:00 +37°C° 0 mm 4 mps 740 mmHg 38%
    13:00 +38°C° 0 mm 3 mps 740 mmHg 34%
    14:00 +39°C° 0 mm 2 mps 739 mmHg 30%
    15:00 +39°C° 0 mm 2 mps 738 mmHg 27%
    16:00 +39°C° 0 mm 2 mps 738 mmHg 26%
    17:00 +40°C° 0 mm 2 mps 738 mmHg 25%
    18:00 +40°C° 0 mm 2 mps 739 mmHg 24%
    19:00 +38°C° 0 mm 4 mps 739 mmHg 30%
    20:00 +37°C° 0 mm 5 mps 740 mmHg 37%
    21:00 +36°C° 0 mm 7 mps 740 mmHg 44%
    22:00 +35°C° 0 mm 7 mps 740 mmHg 51%
    23:00 +33°C° 0 mm 7 mps 740 mmHg 58%

    10 April, Friday

    Time Temperature Precipitation Wind Pressure Humidity
    00:00 +32°C° 0 mm 7 mps 740 mmHg 65%
    01:00 +30°C° 0 mm 7 mps 740 mmHg 67%
    02:00 +30°C° 0 mm 6 mps 740 mmHg 68%
    03:00 +29°C° 0 mm 5 mps 740 mmHg 69%
    04:00 +29°C° 0 mm 5 mps 740 mmHg 70%
    05:00 +29°C° 0 mm 5 mps 740 mmHg 71%
    06:00 +29°C° 0 mm 5 mps 741 mmHg 72%
    07:00 +30°C° 0 mm 5 mps 741 mmHg 67%
    08:00 +32°C° 0 mm 5 mps 742 mmHg 62%
    09:00 +33°C° 0 mm 5 mps 742 mmHg 57%
    10:00 +34°C° 0 mm 4 mps 741 mmHg 51%
    11:00 +35°C° 0 mm 3 mps 741 mmHg 46%
    12:00 +37°C° 0 mm 2 mps 740 mmHg 40%
    13:00 +37°C° 0 mm 2 mps 740 mmHg 38%
    14:00 +38°C° 0 mm 2 mps 739 mmHg 36%
    15:00 +38°C° 0 mm 2 mps 738 mmHg 34%
    16:00 +38°C° 0 mm 2 mps 738 mmHg 33%
    17:00 +38°C° 0 mm 2 mps 739 mmHg 33%
    18:00 +38°C° 0 mm 3 mps 739 mmHg 33%
    19:00 +37°C° 0 mm 4 mps 739 mmHg 37%
    20:00 +36°C° 0 mm 5 mps 740 mmHg 42%
    21:00 +35°C° 0 mm 6 mps 740 mmHg 46%
    22:00 +34°C° 0.1 mm 6 mps 740 mmHg 52%
    23:00 +33°C° 0.1 mm 6 mps 740 mmHg 57%
    Show more